Weather Roundup
Issued by NWS Springfield, MO

Home | Current Version | Previous Version | Text Only | Print | Product List | Glossary On
Versions: 1 2 3 4 5 6 7 8 9 10 11 12 13 14 15 16 17 18 19 20 21 22 23 24 25 26 27 28 29 30 31 32 33 34 35 36 37 38 39 40 41 42 43 44 45 46 47 48 49 50
000
NZUS99 KSGF 292007
HRRSGF

HOURLY WEATHER
NATIONAL WEATHER SERVICE SPRINGFIELD MO
300 PM CDT MON JUN 29 2015

......SGF CWA......

CITY           SKY/WX    TMP DP  RH WIND       PRES   REMARKS
SPRINGFIELD    MOSUNNY   85  63  47 NW10      29.95S
JOPLIN         SUNNY     86  64  47 NW12      29.96F
WEST PLAINS    SUNNY     85  63  47 W9        29.94S
ROLLA          MOSUNNY   82  66  58 NW10      29.90F
OSAGE BEACH    MOSUNNY   82  63  51 W10       29.92S
BRANSON        MOSUNNY   84  64  51 W10       29.96F

......SURROUNDING SGF CWA......

CITY           SKY/WX    TMP DP  RH WIND       PRES   REMARKS
CHANUTE        MOSUNNY   88  61  40 N7        29.96F
PARSONS        SUNNY     88  62  41 NW9       29.97F
COFFEYVILLE    SUNNY     89  60  37 N9G20     29.94F
EMPORIA        SUNNY     87  60  40 N8        29.98S
GROVE OK       MOSUNNY   88  61  40 N6        29.95F
ROGERS AR      MOSUNNY   85  64  49 NW8       29.97F
SILOAM SPRINGS SUNNY     86  63  45 N10       29.97F
HARRISON AR    SUNNY     85  64  49 VRB7      29.96F
NEAR YELLVILLE   N/A     88  61  40 NW9G17    29.90F

......KANSAS AND MISSOURI......

CITY           SKY/WX    TMP DP  RH WIND       PRES   REMARKS
KANSAS CTY INT CLOUDY    85  64  49 NW9       29.93F
DOWNTOWN KC    MOSUNNY   87  64  46 W9        29.92F
COLUMBIA       MOSUNNY   85  65  51 NW12      29.90F
SEDALIA        MOSUNNY   85  66  53 NW7       29.93S
ST JOSEPH      MOSUNNY   88  60  38 NW15      29.92F
ST LOUIS       MOSUNNY   84  66  54 NW10      29.88S
SPIRIT OF STL  PTSUNNY   83  66  56 W12       29.86F
KIRKSVILLE     MOSUNNY   84  63  49 NW9       29.89F
WICHITA        CLOUDY    90  55  30 N9        29.98F
TOPEKA         MOSUNNY   87  63  44 NW10G18   29.95F
OLATHE         MOSUNNY   85  61  44 N10       29.94F

......TENNESSEE......

CITY           SKY/WX    TMP DP  RH WIND       PRES   REMARKS
MEMPHIS        PTSUNNY   89  70  53 SW12G20   29.90F HX  94
NASHVILLE      PTSUNNY   85  68  56 W13G24    29.89F

......ARKANSAS.......

CITY           SKY/WX    TMP DP  RH WIND       PRES   REMARKS
FAYETTEVILLE   SUNNY     84  66  54 NW6       29.97F
FT SMITH       SUNNY     91  64  40 VRB5      29.92F HX  92
LITTLE ROCK    MOSUNNY   93  63  36 W12       29.90F HX  94

......OKLAHOMA.......

CITY           SKY/WX    TMP DP  RH WIND       PRES   REMARKS
TULSA          CLOUDY    91  61  36 N9        29.93F HX  91
PONCA CITY     SUNNY     93  59  31 NW7       29.95F HX  92
MCALESTER      SUNNY     94  68  42 NW9       29.94F HX  98
OKLAHOMA CITY  MOSUNNY   96  66  37 N10       29.96S HX  99

......IOWA............

CITY           SKY/WX    TMP DP  RH WIND       PRES   REMARKS
DES MOINES     CLOUDY    82  61  48 N13       29.88F
QUAD CITIES    SUNNY     77  64  64 W7        29.83F

......ILLINOIS........

CITY           SKY/WX    TMP DP  RH WIND       PRES   REMARKS
QUINCY         MOSUNNY   81  66  60 NW6       29.86F
CHICAGO        CLOUDY    73  61  65 NE8       29.79F



USA.gov is the U.S. government's official web portal to all federal, state and local government web resources and services.